Location: Wien
(48.2082°N, 16.3738°E)
Time: 12:35:00
(UTC+02:00)

MOZHAYETS 4 - Pass Details

Date: 28 March 2019
Orbit: 661 x 681 km, 98.1° (Epoch: 17 October)

Event Time Altitude Azimuth Distance (km) Brightness Sun altitude
Exits shadow 01:58:09 20° 346° (NNW) 1,529 9.9 -32.8°
Drops below altitude 10° 01:59:37 10° 346° (NNW) 2,114 10.7 -32.7°
Sets 02:01:52 0° 347° (NNW) 3,036 11.6 -32.5°
